| time (UTC) | temp F | wind direction | speed knots | gust knots | rain 1hr in | rain 24hr in | rain mn in | humidity % | barometer mb |
| 20260506230032 | 56 | 254 | 1.7 | 5.2 | 0.00 | 0.66 | 0.32 | 49 | 1013.5 |
| 20260506225514 | 56 | 254 | 0.9 | 5.2 | 0.00 | 0.78 | 0.32 | 50 | 1013.4 |
| 20260506225018 | 56 | 288 | 0.9 | 5.2 | 0.00 | 0.78 | 0.32 | 49 | 1013.5 |
| 20260506224531 | 56 | 301 | 1.7 | 5.2 | 0.00 | 0.78 | 0.32 | 49 | 1013.6 |
| 20260506224011 | 56 | 293 | 2.6 | 5.2 | 0.00 | 0.78 | 0.32 | 48 | 1013.7 |
| 20260506223510 | 56 | 261 | 1.7 | 4.3 | 0.00 | 0.78 | 0.32 | 48 | 1013.7 |
| 20260506223028 | 56 | 8 | 1.7 | 7.0 | 0.00 | 0.78 | 0.32 | 50 | 1013.7 |
| 20260506222514 | 56 | 290 | 2.6 | 7.0 | 0.00 | 0.78 | 0.32 | 49 | 1013.8 |
| 20260506222013 | 56 | 304 | 2.6 | 7.0 | 0.00 | 0.78 | 0.32 | 49 | 1013.7 |
| 20260506221527 | 56 | 334 | 1.7 | 7.0 | 0.00 | 0.78 | 0.32 | 49 | 1013.7 |
| 20260506221012 | 56 | 261 | 1.7 | 7.0 | 0.00 | 0.78 | 0.32 | 49 | 1013.3 |
| 20260506220510 | 56 | 347 | 1.7 | 5.2 | 0.00 | 0.78 | 0.32 | 49 | 1013.1 |
| 20260506220028 | 56 | 304 | 1.7 | 5.2 | 0.00 | 0.78 | 0.32 | 49 | 1012.9 |
| 20260506215513 | 56 | 288 | 0.9 | 8.7 | 0.00 | 0.86 | 0.32 | 49 | 1012.9 |
| 20260506215011 | 56 | 293 | 2.6 | 8.7 | 0.00 | 0.86 | 0.32 | 48 | 1012.9 |
| 20260506214530 | 56 | 7 | 3.5 | 8.7 | 0.00 | 0.86 | 0.32 | 48 | 1012.9 |
| 20260506214015 | 57 | 318 | 3.5 | 6.1 | 0.00 | 0.86 | 0.32 | 49 | 1012.8 |
| 20260506213513 | 56 | 296 | 0.9 | 4.3 | 0.00 | 0.86 | 0.32 | 50 | 1012.7 |
| 20260506213032 | 56 | 260 | 1.7 | 4.3 | 0.00 | 0.86 | 0.32 | 49 | 1012.7 |
| 20260506212513 | 57 | 295 | 0.9 | 7.8 | 0.00 | 0.86 | 0.32 | 49 | 1012.5 |
| 20260506212015 | 56 | 272 | 2.6 | 7.8 | 0.00 | 0.86 | 0.32 | 48 | 1012.5 |
| 20260506211530 | 57 | 270 | 2.6 | 6.1 | 0.00 | 0.86 | 0.32 | 49 | 1012.4 |
| 20260506211011 | 57 | 263 | 0.9 | 8.7 | 0.00 | 0.86 | 0.32 | 50 | 1012.4 |
| 20260506210513 | 56 | 300 | 1.7 | 8.7 | 0.00 | 0.86 | 0.32 | 49 | 1012.5 |
| 20260506210034 | 56 | 322 | 2.6 | 8.7 | 0.00 | 0.86 | 0.32 | 48 | 1012.4 |
| 20260506205512 | 56 | 276 | 2.6 | 8.7 | 0.00 | 0.86 | 0.32 | 49 | 1012.4 |
| 20260506205014 | 56 | 256 | 3.5 | 7.0 | 0.00 | 0.86 | 0.32 | 47 | 1012.3 |
| 20260506204530 | 57 | 281 | 1.7 | 7.8 | 0.00 | 0.86 | 0.32 | 47 | 1012.3 |
| 20260506204014 | 57 | 295 | 4.3 | 8.7 | 0.00 | 0.86 | 0.32 | 47 | 1012.4 |
| 20260506203512 | 57 | 321 | 3.5 | 8.7 | 0.00 | 0.86 | 0.32 | 49 | 1012.3 |
| 20260506203038 | 57 | 314 | 1.7 | 9.6 | 0.00 | 0.86 | 0.32 | 49 | 1012.3 |
| 20260506202513 | 57 | 35 | 3.5 | 10.4 | 0.00 | 0.86 | 0.32 | 49 | 1012.2 |
| 20260506202012 | 57 | 328 | 4.3 | 10.4 | 0.00 | 0.86 | 0.32 | 47 | 1012.2 |
| 20260506201537 | 58 | 322 | 4.3 | 11.3 | 0.00 | 0.86 | 0.32 | 47 | 1012.2 |
| 20260506201014 | 58 | 315 | 3.5 | 11.3 | 0.00 | 0.86 | 0.32 | 48 | 1012.2 |
| 20260506200514 | 58 | 296 | 4.3 | 9.6 | 0.00 | 0.86 | 0.32 | 48 | 1012.3 |
| 20260506200035 | 58 | 265 | 4.3 | 9.6 | 0.00 | 0.86 | 0.32 | 48 | 1012.2 |
| 20260506195516 | 59 | 279 | 3.5 | 8.7 | 0.00 | 0.86 | 0.32 | 47 | 1012.1 |
| 20260506195015 | 60 | 298 | 2.6 | 8.7 | 0.00 | 0.86 | 0.32 | 48 | 1012.0 |
| 20260506194531 | 60 | 299 | 1.7 | 7.8 | 0.00 | 0.86 | 0.32 | 49 | 1012.1 |
| 20260506194014 | 60 | 313 | 3.5 | 7.8 | 0.00 | 0.86 | 0.32 | 48 | 1012.1 |
| 20260506193512 | 59 | 323 | 3.5 | 7.0 | 0.00 | 0.86 | 0.32 | 46 | 1012.0 |
| 20260506193030 | 60 | 271 | 2.6 | 7.0 | 0.00 | 0.86 | 0.32 | 47 | 1012.0 |
| 20260506192511 | 60 | 307 | 2.6 | 7.0 | 0.00 | 0.86 | 0.32 | 45 | 1011.9 |
| 20260506192017 | 60 | 101 | 1.7 | 9.6 | 0.00 | 0.86 | 0.32 | 46 | 1011.9 |
| 20260506191532 | 59 | 290 | 3.5 | 9.6 | 0.00 | 0.86 | 0.32 | 45 | 1011.8 |
| 20260506191014 | 60 | 340 | 4.3 | 9.6 | 0.00 | 0.86 | 0.32 | 45 | 1011.9 |
| 20260506190513 | 60 | 314 | 3.5 | 7.0 | 0.00 | 0.86 | 0.32 | 45 | 1012.1 |
| 20260506190037 | 60 | 303 | 1.7 | 7.0 | 0.00 | 0.86 | 0.32 | 46 | 1012.0 |
| 20260506185512 | 60 | 211 | 3.5 | 7.0 | 0.00 | 0.86 | 0.32 | 44 | 1012.0 |
| 20260506185009 | 60 | 103 | 1.7 | 7.8 | 0.00 | 0.86 | 0.32 | 46 | 1011.9 |
| 20260506184535 | 60 | 279 | 1.7 | 7.8 | 0.00 | 0.86 | 0.32 | 49 | 1012.0 |
| 20260506184018 | 60 | 266 | 2.6 | 7.0 | 0.00 | 0.86 | 0.32 | 47 | 1011.9 |
| 20260506183513 | 60 | 252 | 0.9 | 3.5 | 0.00 | 0.86 | 0.32 | 48 | 1012.0 |
| 20260506183028 | 59 | 302 | 1.7 | 8.7 | 0.00 | 0.86 | 0.32 | 49 | 1012.1 |
| 20260506182512 | 59 | 249 | 1.7 | 8.7 | 0.00 | 0.86 | 0.32 | 48 | 1012.1 |
| 20260506182013 | 58 | 281 | 2.6 | 8.7 | 0.00 | 0.86 | 0.32 | 47 | 1012.2 |
| 20260506181530 | 58 | 345 | 3.5 | 8.7 | 0.00 | 0.86 | 0.32 | 48 | 1012.2 |
| 20260506181015 | 58 | 285 | 1.7 | 8.7 | 0.00 | 0.86 | 0.32 | 48 | 1012.2 |
| 20260506180513 | 59 | 325 | 2.6 | 7.8 | 0.00 | 0.86 | 0.32 | 47 | 1012.2 |
| 20260506180030 | 60 | 314 | 2.6 | 9.6 | 0.00 | 0.86 | 0.32 | 47 | 1012.2 |
| 20260506175513 | 60 | 42 | 1.7 | 9.6 | 0.00 | 0.86 | 0.32 | 47 | 1012.1 |
| 20260506175016 | 60 | 302 | 3.5 | 9.6 | 0.00 | 0.86 | 0.32 | 46 | 1012.2 |
| 20260506174529 | 59 | 71 | 1.7 | 9.6 | 0.00 | 0.86 | 0.32 | 51 | 1012.2 |
| 20260506174013 | 58 | 113 | 2.6 | 9.6 | 0.00 | 0.86 | 0.32 | 51 | 1012.4 |
| 20260506173513 | 58 | 234 | 4.3 | 8.7 | 0.00 | 0.86 | 0.32 | 49 | 1012.3 |
| 20260506173040 | 58 | 280 | 4.3 | 9.6 | 0.00 | 0.86 | 0.32 | 48 | 1012.2 |
| 20260506172512 | 58 | 283 | 1.7 | 9.6 | 0.00 | 0.86 | 0.32 | 49 | 1012.3 |
| 20260506172012 | 59 | 281 | 4.3 | 9.6 | 0.00 | 0.86 | 0.32 | 47 | 1012.4 |
| 20260506171529 | 60 | 258 | 1.7 | 8.7 | 0.00 | 0.86 | 0.32 | 47 | 1012.3 |
| 20260506171014 | 59 | 350 | 1.7 | 7.0 | 0.00 | 0.86 | 0.32 | 50 | 1012.3 |
| 20260506170510 | 58 | 98 | 2.6 | 7.0 | 0.00 | 0.86 | 0.32 | 50 | 1012.2 |
| 20260506170029 | 58 | 0 | 0.9 | 9.6 | 0.00 | 0.86 | 0.32 | 51 | 1012.2 |
| 20260506165511 | 57 | 115 | 4.3 | 9.6 | 0.00 | 0.86 | 0.32 | 46 | 1012.1 |
| 20260506165014 | 57 | 35 | 2.6 | 6.1 | 0.00 | 0.86 | 0.32 | 49 | 1012.2 |
| 20260506164538 | 57 | 342 | 1.7 | 7.8 | 0.00 | 0.86 | 0.32 | 53 | 1012.2 |
| 20260506164014 | 57 | 295 | 2.6 | 7.8 | 0.00 | 0.86 | 0.32 | 51 | 1012.5 |
| 20260506163512 | 57 | 253 | 3.5 | 7.8 | 0.00 | 0.86 | 0.32 | 53 | 1012.8 |
| 20260506163036 | 57 | 88 | 2.6 | 5.2 | 0.00 | 0.86 | 0.32 | 53 | 1012.7 |
| 20260506162517 | 57 | 94 | 1.7 | 8.7 | 0.00 | 0.86 | 0.32 | 53 | 1012.6 |
| 20260506162012 | 56 | 250 | 3.5 | 8.7 | 0.00 | 0.86 | 0.32 | 56 | 1012.4 |
| 20260506161528 | 56 | 254 | 1.7 | 7.0 | 0.00 | 0.86 | 0.32 | 54 | 1012.5 |
| 20260506161010 | 56 | 78 | 1.7 | 6.1 | 0.00 | 0.86 | 0.32 | 60 | 1012.5 |
| 20260506160513 | 56 | 303 | 2.6 | 6.1 | 0.00 | 0.86 | 0.32 | 56 | 1012.4 |
| 20260506160028 | 56 | 325 | 1.7 | 6.1 | 0.00 | 0.86 | 0.32 | 57 | 1012.4 |
| 20260506155511 | 56 | 91 | 1.7 | 6.1 | 0.00 | 0.86 | 0.32 | 61 | 1012.2 |
| 20260506155011 | 55 | 295 | 1.7 | 6.1 | 0.00 | 0.86 | 0.32 | 59 | 1012.2 |
| 20260506154532 | 54 | 86 | 0.9 | 8.7 | 0.00 | 0.86 | 0.32 | 63 | 1012.1 |
| 20260506154016 | 53 | 266 | 3.5 | 8.7 | 0.00 | 0.86 | 0.32 | 61 | 1012.1 |
| 20260506153511 | 54 | 307 | 3.5 | 8.7 | 0.00 | 0.86 | 0.32 | 62 | 1012.2 |
| 20260506153029 | 53 | 250 | 2.6 | 6.1 | 0.00 | 0.86 | 0.32 | 63 | 1012.0 |
| 20260506152512 | 53 | 0 | 1.7 | 5.2 | 0.00 | 0.86 | 0.32 | 64 | 1011.8 |
| 20260506152010 | 53 | 0 | 0.9 | 4.3 | 0.00 | 0.86 | 0.32 | 67 | 1011.8 |
| 20260506151531 | 53 | 270 | 0.9 | 5.2 | 0.00 | 0.86 | 0.32 | 65 | 1011.9 |
| 20260506151013 | 52 | 328 | 1.7 | 5.2 | 0.00 | 0.86 | 0.32 | 67 | 1011.8 |
| 20260506150513 | 53 | 278 | 1.7 | 5.2 | 0.00 | 0.86 | 0.32 | 67 | 1011.7 |
| 20260506150030 | 52 | 254 | 0.9 | 7.8 | 0.00 | 0.86 | 0.32 | 68 | 1011.7 |
| 20260506145510 | 52 | 309 | 0.9 | 7.8 | 0.00 | 0.86 | 0.32 | 69 | 1011.7 |
| 20260506145010 | 51 | 288 | 3.5 | 7.8 | 0.00 | 0.86 | 0.32 | 69 | 1011.8 |
| 20260506144534 | 51 | 269 | 0.9 | 6.1 | 0.00 | 0.86 | 0.32 | 72 | 1011.6 |
| 20260506144012 | 50 | 276 | 1.7 | 6.1 | 0.00 | 0.86 | 0.32 | 73 | 1011.8 |
| 20260506143513 | 50 | 315 | 2.6 | 6.1 | 0.00 | 0.86 | 0.32 | 73 | 1011.6 |
| 20260506143033 | 50 | 308 | 2.6 | 7.0 | 0.00 | 0.86 | 0.32 | 73 | 1011.8 |
| 20260506142514 | 50 | 295 | 2.6 | 7.0 | 0.00 | 0.86 | 0.32 | 73 | 1011.5 |
| 20260506142010 | 50 | 289 | 0.9 | 6.1 | 0.00 | 0.86 | 0.32 | 76 | 1011.4 |
| 20260506141533 | 49 | 301 | 1.7 | 6.1 | 0.00 | 0.86 | 0.32 | 76 | 1011.4 |
| 20260506141014 | 49 | 290 | 2.6 | 7.8 | 0.00 | 0.86 | 0.32 | 76 | 1011.3 |
| 20260506140512 | 49 | 320 | 2.6 | 7.8 | 0.00 | 0.86 | 0.32 | 77 | 1011.0 |
| 20260506140032 | 49 | 311 | 2.6 | 7.0 | 0.00 | 0.86 | 0.32 | 78 | 1011.0 |
| 20260506135513 | 48 | 283 | 1.7 | 7.0 | 0.00 | 0.86 | 0.32 | 79 | 1011.0 |
| 20260506135013 | 48 | 261 | 1.7 | 7.0 | 0.00 | 0.86 | 0.32 | 80 | 1011.0 |
| 20260506134528 | 48 | 310 | 0.9 | 7.0 | 0.00 | 0.86 | 0.32 | 83 | 1011.1 |
| 20260506134017 | 48 | 322 | 2.6 | 7.0 | 0.00 | 0.86 | 0.32 | 84 | 1010.9 |
| 20260506133516 | 48 | 262 | 2.6 | 6.1 | 0.00 | 0.86 | 0.32 | 86 | 1010.7 |
| 20260506133028 | 48 | 284 | 2.6 | 7.0 | 0.00 | 0.86 | 0.32 | 86 | 1010.7 |
| 20260506132513 | 48 | 304 | 0.9 | 7.0 | 0.00 | 0.86 | 0.32 | 87 | 1010.5 |
| 20260506132013 | 48 | 300 | 3.5 | 6.1 | 0.00 | 0.86 | 0.32 | 87 | 1010.6 |
| 20260506131544 | 48 | 359 | 2.6 | 5.2 | 0.00 | 0.86 | 0.32 | 87 | 1010.7 |
| 20260506131014 | 47 | 37 | 1.7 | 7.8 | 0.00 | 0.86 | 0.32 | 87 | 1010.7 |
| 20260506130514 | 47 | 297 | 4.3 | 7.8 | 0.00 | 0.86 | 0.32 | 87 | 1010.6 |
| 20260506130037 | 48 | 287 | 1.7 | 6.1 | 0.00 | 0.86 | 0.32 | 89 | 1010.7 |
| 20260506125513 | 48 | 285 | 0.9 | 5.2 | 0.00 | 0.86 | 0.32 | 89 | 1010.6 |
| 20260506125013 | 47 | 297 | 1.7 | 5.2 | 0.00 | 0.86 | 0.32 | 90 | 1010.6 |
| 20260506124529 | 47 | 302 | 1.7 | 6.1 | 0.00 | 0.86 | 0.32 | 90 | 1010.4 |
| 20260506124014 | 47 | 249 | 2.6 | 6.1 | 0.00 | 0.86 | 0.32 | 90 | 1010.4 |
| 20260506123513 | 47 | 288 | 2.6 | 6.1 | 0.00 | 0.86 | 0.32 | 90 | 1010.2 |
| 20260506123031 | 47 | 268 | 0.0 | 4.3 | 0.00 | 0.86 | 0.32 | 91 | 1009.8 |
| 20260506122512 | 47 | 274 | 0.9 | 4.3 | 0.00 | 0.86 | 0.32 | 91 | 1009.6 |
| 20260506122013 | 47 | 292 | 0.9 | 4.3 | 0.00 | 0.86 | 0.32 | 91 | 1009.7 |
| 20260506121530 | 47 | 244 | 1.7 | 4.3 | 0.00 | 0.86 | 0.32 | 91 | 1009.6 |
| 20260506121013 | 47 | 268 | 0.0 | 4.3 | 0.00 | 0.86 | 0.32 | 91 | 1009.4 |
| 20260506120512 | 47 | 323 | 0.9 | 4.3 | 0.00 | 0.86 | 0.32 | 92 | 1009.7 |
| 20260506120033 | 47 | 319 | 2.6 | 4.3 | 0.00 | 0.86 | 0.32 | 92 | 1009.9 |
| 20260506115516 | 47 | 256 | 1.7 | 4.3 | 0.00 | 0.86 | 0.32 | 92 | 1009.8 |
| 20260506115012 | 47 | 302 | 1.7 | 4.3 | 0.00 | 0.86 | 0.32 | 92 | 1009.5 |
| 20260506114534 | 46 | 274 | 0.0 | 3.5 | 0.00 | 0.86 | 0.32 | 92 | 1009.7 |
| 20260506114013 | 46 | 316 | 1.7 | 6.1 | 0.00 | 0.86 | 0.32 | 92 | 1009.9 |
| 20260506113511 | 46 | 298 | 2.6 | 6.1 | 0.00 | 0.86 | 0.32 | 92 | 1009.9 |
| 20260506113030 | 46 | 308 | 1.7 | 4.3 | 0.00 | 0.86 | 0.32 | 92 | 1009.4 |
| 20260506112513 | 46 | 333 | 1.7 | 3.5 | 0.00 | 0.86 | 0.32 | 92 | 1009.3 |
| 20260506112013 | 46 | 116 | 0.9 | 6.1 | 0.00 | 0.86 | 0.32 | 92 | 1008.9 |
| 20260506111531 | 46 | 0 | 0.9 | 6.1 | 0.00 | 0.86 | 0.32 | 92 | 1008.8 |
| 20260506111010 | 46 | 290 | 1.7 | 6.1 | 0.00 | 0.86 | 0.32 | 92 | 1008.8 |
| 20260506110513 | 46 | 294 | 1.7 | 6.1 | 0.00 | 0.86 | 0.32 | 92 | 1008.6 |
| 20260506110033 | 46 | 292 | 1.7 | 4.3 | 0.00 | 0.86 | 0.32 | 92 | 1008.3 |
| 20260506105513 | 46 | 335 | 0.9 | 3.5 | 0.00 | 0.86 | 0.32 | 92 | 1008.0 |
| 20260506105017 | 46 | 276 | 0.9 | 6.1 | 0.00 | 0.86 | 0.32 | 92 | 1008.3 |
| 20260506104533 | 47 | 311 | 0.9 | 6.1 | 0.00 | 0.86 | 0.32 | 92 | 1008.9 |
| 20260506104010 | 47 | 326 | 1.7 | 4.3 | 0.00 | 0.86 | 0.32 | 92 | 1008.9 |
| 20260506103514 | 47 | 30 | 0.9 | 2.6 | 0.00 | 0.86 | 0.32 | 92 | 1008.9 |
| 20260506103038 | 47 | 332 | 0.9 | 3.5 | 0.00 | 0.86 | 0.32 | 92 | 1008.7 |
| 20260506102513 | 47 | 289 | 1.7 | 3.5 | 0.00 | 0.86 | 0.32 | 92 | 1008.3 |
| 20260506102011 | 47 | 305 | 0.9 | 3.5 | 0.00 | 0.86 | 0.32 | 92 | 1008.0 |
| 20260506101541 | 47 | 336 | 1.7 | 3.5 | 0.00 | 0.86 | 0.32 | 92 | 1008.0 |
| 20260506101011 | 47 | 0 | 0.0 | 3.5 | 0.00 | 0.86 | 0.32 | 92 | 1007.9 |
| 20260506100509 | 47 | 317 | 0.9 | 3.5 | 0.00 | 0.86 | 0.32 | 92 | 1007.6 |
| 20260506100037 | 47 | 343 | 1.7 | 3.5 | 0.01 | 0.86 | 0.32 | 92 | 1007.4 |
| 20260506095510 | 47 | 321 | 0.9 | 3.5 | 0.01 | 0.86 | 0.32 | 92 | 1007.3 |
| 20260506095011 | 47 | 0 | 0.0 | 3.5 | 0.02 | 0.86 | 0.32 | 92 | 1007.2 |
| 20260506094528 | 47 | 121 | 0.9 | 5.2 | 0.02 | 0.86 | 0.32 | 92 | 1006.9 |
| 20260506094013 | 47 | 134 | 0.9 | 5.2 | 0.03 | 0.86 | 0.32 | 92 | 1007.3 |
| 20260506093511 | 46 | 313 | 1.7 | 5.2 | 0.03 | 0.86 | 0.32 | 92 | 1007.5 |
| 20260506093039 | 46 | 271 | 1.7 | 5.2 | 0.04 | 0.86 | 0.32 | 92 | 1007.3 |
| 20260506092508 | 46 | 329 | 0.9 | 5.2 | 0.05 | 0.86 | 0.32 | 92 | 1007.3 |
| 20260506092015 | 46 | 264 | 0.9 | 5.2 | 0.07 | 0.86 | 0.32 | 92 | 1007.6 |
| 20260506091535 | 46 | 0 | 0.9 | 5.2 | 0.08 | 0.86 | 0.32 | 92 | 1007.6 |
| 20260506091008 | 46 | 297 | 0.9 | 7.0 | 0.09 | 0.86 | 0.32 | 92 | 1007.5 |
| 20260506090512 | 46 | 300 | 1.7 | 7.0 | 0.10 | 0.86 | 0.32 | 92 | 1007.2 |
| 20260506090028 | 46 | 301 | 1.7 | 7.0 | 0.09 | 0.85 | 0.31 | 92 | 1007.2 |
| 20260506085508 | 46 | 327 | 1.7 | 7.8 | 0.10 | 0.85 | 0.31 | 92 | 1007.1 |
| 20260506085011 | 46 | 301 | 2.6 | 9.6 | 0.09 | 0.84 | 0.30 | 92 | 1007.4 |
| 20260506084529 | 46 | 141 | 2.6 | 9.6 | 0.09 | 0.84 | 0.30 | 92 | 1007.7 |
| 20260506084009 | 46 | 167 | 2.6 | 9.6 | 0.08 | 0.83 | 0.29 | 92 | 1007.7 |
| 20260506083512 | 46 | 323 | 1.7 | 9.6 | 0.08 | 0.83 | 0.29 | 92 | 1007.7 |
| 20260506083031 | 46 | 243 | 2.6 | 9.6 | 0.07 | 0.82 | 0.28 | 92 | 1007.5 |
| 20260506082512 | 47 | 210 | 0.9 | 6.1 | 0.05 | 0.80 | 0.26 | 92 | 1007.2 |
| 20260506082009 | 47 | 304 | 1.7 | 7.0 | 0.04 | 0.79 | 0.25 | 92 | 1007.1 |
| 20260506081539 | 47 | 249 | 1.7 | 7.0 | 0.03 | 0.78 | 0.24 | 91 | 1007.2 |
| 20260506081010 | 47 | 302 | 2.6 | 7.8 | 0.03 | 0.77 | 0.23 | 91 | 1007.3 |
| 20260506080510 | 47 | 290 | 3.5 | 10.4 | 0.02 | 0.76 | 0.22 | 91 | 1007.2 |
| 20260506073511 | 47 | 10 | 3.5 | 10.4 | 0.06 | 0.75 | 0.21 | 91 | 1006.7 |
| 20260506073038 | 47 | 70 | 2.6 | 7.8 | 0.06 | 0.75 | 0.21 | 91 | 1006.7 |
| 20260506072514 | 47 | 302 | 3.5 | 8.7 | 0.07 | 0.75 | 0.21 | 91 | 1006.6 |
| 20260506072011 | 48 | 302 | 2.6 | 8.7 | 0.08 | 0.75 | 0.21 | 91 | 1006.5 |
| 20260506071530 | 48 | 340 | 0.9 | 7.8 | 0.09 | 0.75 | 0.21 | 92 | 1006.6 |
| 20260506071017 | 48 | 256 | 0.9 | 7.8 | 0.09 | 0.74 | 0.20 | 92 | 1006.6 |
| 20260506070513 | 48 | 322 | 1.7 | 7.0 | 0.09 | 0.73 | 0.19 | 92 | 1006.6 |
| 20260506062513 | 49 | 31 | 3.5 | 7.0 | 0.12 | 0.68 | 0.14 | 92 | 1006.8 |
| 20260506062014 | 49 | 323 | 2.6 | 7.0 | 0.11 | 0.67 | 0.13 | 92 | 1006.9 |
| 20260506061532 | 50 | 0 | 0.9 | 7.0 | 0.11 | 0.66 | 0.12 | 92 | 1006.7 |
| 20260506061013 | 50 | 274 | 1.7 | 5.2 | 0.11 | 0.65 | 0.11 | 92 | 1006.7 |
| 20260506060514 | 50 | 324 | 2.6 | 5.2 | 0.10 | 0.64 | 0.10 | 92 | 1006.8 |
| 20260506051013 | 50 | 257 | 0.9 | 3.5 | 0.00 | 0.54 | 0.00 | 91 | 1007.0 |
| 20260506050513 | 51 | 319 | 0.9 | 3.5 | 0.00 | 0.54 | 0.00 | 92 | 1007.1 |
| 20260506045014 | 51 | 319 | 0.0 | 2.6 | 0.01 | 0.54 | 0.00 | 92 | 1007.3 |
| 20260506044559 | 51 | 0 | 0.0 | 2.6 | 0.01 | 0.54 | 0.00 | 91 | 1007.2 |
| 20260506044013 | 51 | 283 | 0.0 | 2.6 | 0.01 | 0.54 | 0.00 | 92 | 1007.1 |
| 20260506043513 | 51 | 321 | 0.9 | 4.3 | 0.02 | 0.54 | 0.00 | 91 | 1007.2 |
| 20260506043032 | 51 | 87 | 0.0 | 5.2 | 0.03 | 0.54 | 0.00 | 91 | 1007.2 |
| 20260506042513 | 51 | 243 | 0.9 | 5.2 | 0.04 | 0.54 | 0.00 | 91 | 1007.3 |
| 20260506042051 | 52 | 309 | 0.9 | 4.3 | 0.06 | 0.54 | 0.00 | 91 | 1007.2 |
| 20260506041527 | 52 | 307 | 0.9 | 4.3 | 0.07 | 0.54 | 0.00 | 91 | 1007.3 |
| 20260506041017 | 52 | 305 | 0.9 | 8.7 | 0.09 | 0.54 | 0.00 | 90 | 1007.3 |
| 20260506040509 | 53 | 262 | 2.6 | 8.7 | 0.10 | 0.54 | 0.00 | 90 | 1007.4 |
| 20260506040029 | 54 | 354 | 2.6 | 6.1 | 0.11 | 0.54 | 0.00 | 89 | 1007.5 |
| 20260506035509 | 55 | 345 | 2.6 | 6.1 | 0.13 | 0.54 | 0.54 | 89 | 1007.3 |
| 20260506035009 | 56 | 51 | 2.6 | 6.1 | 0.13 | 0.52 | 0.52 | 89 | 1007.4 |
| 20260506034558 | 58 | 293 | 0.9 | 3.5 | 0.14 | 0.52 | 0.52 | 92 | 1007.4 |
| 20260506034009 | 58 | 246 | 0.0 | 0.9 | 0.14 | 0.52 | 0.52 | 92 | 1007.4 |
| 20260506033510 | 58 | 0 | 0.0 | 1.7 | 0.14 | 0.52 | 0.52 | 92 | 1007.5 |
| 20260506033027 | 58 | 0 | 0.0 | 1.7 | 0.13 | 0.51 | 0.51 | 92 | 1007.5 |
| 20260506032511 | 58 | 247 | 0.0 | 2.6 | 0.12 | 0.49 | 0.49 | 91 | 1007.6 |
| 20260506032011 | 58 | 212 | 0.0 | 2.6 | 0.12 | 0.48 | 0.48 | 91 | 1007.6 |
| 20260506031531 | 58 | 257 | 0.9 | 2.6 | 0.11 | 0.46 | 0.46 | 91 | 1007.7 |
| 20260506031009 | 58 | 217 | 0.0 | 1.7 | 0.11 | 0.45 | 0.45 | 91 | 1007.8 |
| 20260506030509 | 58 | 81 | 0.0 | 2.6 | 0.11 | 0.44 | 0.44 | 91 | 1007.8 |
| 20260506030028 | 58 | 274 | 0.0 | 2.6 | 0.10 | 0.42 | 0.42 | 91 | 1007.9 |
| 20260506025511 | 58 | 112 | 0.0 | 2.6 | 0.10 | 0.41 | 0.41 | 92 | 1007.8 |
| 20260506025010 | 59 | 0 | 0.0 | 1.7 | 0.08 | 0.39 | 0.39 | 91 | 1007.8 |
| 20260506024528 | 59 | 253 | 0.0 | 1.7 | 0.09 | 0.39 | 0.39 | 91 | 1007.8 |
| 20260506024010 | 59 | 0 | 0.0 | 1.7 | 0.10 | 0.39 | 0.39 | 91 | 1007.8 |
| 20260506023512 | 59 | 265 | 0.9 | 1.7 | 0.11 | 0.38 | 0.38 | 91 | 1007.8 |
| 20260506023028 | 59 | 0 | 0.0 | 1.7 | 0.12 | 0.38 | 0.38 | 91 | 1007.8 |
| 20260506022510 | 59 | 0 | 0.0 | 1.7 | 0.12 | 0.37 | 0.37 | 91 | 1007.9 |
| 20260506022011 | 59 | 240 | 0.0 | 2.6 | 0.11 | 0.36 | 0.36 | 91 | 1007.9 |
| 20260506021530 | 59 | 269 | 0.9 | 2.6 | 0.10 | 0.34 | 0.34 | 92 | 1008.0 |
| 20260506021010 | 59 | 0 | 0.0 | 0.9 | 0.10 | 0.34 | 0.34 | 92 | 1008.0 |
| 20260506020508 | 59 | 0 | 0.0 | 0.9 | 0.09 | 0.33 | 0.33 | 91 | 1008.0 |
| 20260506020030 | 59 | 0 | 0.0 | 1.7 | 0.08 | 0.32 | 0.32 | 92 | 1007.9 |
| 20260506015512 | 59 | 0 | 0.0 | 1.7 | 0.07 | 0.31 | 0.31 | 92 | 1007.9 |
| 20260506015012 | 59 | 0 | 0.0 | 2.6 | 0.06 | 0.30 | 0.30 | 92 | 1007.8 |
| 20260506014530 | 59 | 0 | 0.0 | 2.6 | 0.05 | 0.29 | 0.29 | 91 | 1007.8 |
| 20260506014008 | 60 | 117 | 0.0 | 2.6 | 0.06 | 0.29 | 0.29 | 92 | 1007.7 |
| 20260506013513 | 60 | 0 | 0.0 | 0.9 | 0.05 | 0.27 | 0.27 | 91 | 1007.8 |
| 20260506013027 | 60 | 0 | 0.0 | 1.7 | 0.04 | 0.26 | 0.26 | 91 | 1007.8 |
| 20260506012511 | 60 | 0 | 0.0 | 1.7 | 0.04 | 0.25 | 0.25 | 91 | 1007.7 |
| 20260506012011 | 60 | 0 | 0.0 | 0.0 | 0.03 | 0.24 | 0.24 | 91 | 1007.6 |
| 20260506011528 | 59 | 0 | 0.0 | 0.0 | 0.03 | 0.24 | 0.24 | 91 | 1007.5 |
| 20260506011012 | 60 | 0 | 0.0 | 0.9 | 0.03 | 0.24 | 0.24 | 91 | 1007.4 |
| 20260506010508 | 60 | 0 | 0.0 | 0.9 | 0.03 | 0.24 | 0.24 | 91 | 1007.3 |
| 20260506010028 | 60 | 0 | 0.0 | 0.9 | 0.03 | 0.24 | 0.24 | 91 | 1007.5 |
| 20260506005509 | 60 | 0 | 0.0 | 0.9 | 0.03 | 0.24 | 0.24 | 91 | 1007.5 |
| 20260506005011 | 60 | 0 | 0.0 | 1.7 | 0.03 | 0.24 | 0.24 | 91 | 1007.3 |
| 20260506004539 | 60 | 0 | 0.0 | 1.7 | 0.03 | 0.24 | 0.24 | 91 | 1007.5 |
| 20260506004011 | 60 | 0 | 0.0 | 0.9 | 0.02 | 0.23 | 0.23 | 91 | 1007.6 |
| 20260506003509 | 60 | 0 | 0.0 | 1.7 | 0.01 | 0.22 | 0.22 | 91 | 1007.7 |
| 20260506003038 | 60 | 224 | 0.0 | 1.7 | 0.01 | 0.22 | 0.22 | 91 | 1007.6 |
| 20260506002511 | 60 | 0 | 0.0 | 3.5 | 0.00 | 0.21 | 0.21 | 91 | 1007.7 |
| 20260506002009 | 60 | 238 | 0.0 | 3.5 | 0.01 | 0.21 | 0.21 | 91 | 1007.6 |
| 20260506001530 | 60 | 250 | 0.0 | 3.5 | 0.01 | 0.21 | 0.21 | 91 | 1007.5 |
| 20260506001011 | 60 | 0 | 0.0 | 0.9 | 0.01 | 0.21 | 0.21 | 91 | 1007.6 |
| 20260506000511 | 60 | 213 | 0.0 | 1.7 | 0.01 | 0.21 | 0.21 | 91 | 1007.5 |
| 20260506000031 | 60 | 206 | 0.0 | 1.7 | 0.01 | 0.21 | 0.21 | 91 | 1007.6 |
| 20260505235511 | 60 | 0 | 0.0 | 0.9 | 0.01 | 0.21 | 0.21 | 91 | 1007.6 |
| 20260505235008 | 60 | 0 | 0.0 | 0.0 | 0.01 | 0.21 | 0.21 | 91 | 1007.6 |
| 20260505234548 | 60 | 0 | 0.0 | 0.0 | 0.01 | 0.21 | 0.21 | 91 | 1007.6 |
| 20260505234014 | 60 | 0 | 0.0 | 0.9 | 0.01 | 0.21 | 0.21 | 90 | 1007.6 |
| 20260505233515 | 60 | 0 | 0.0 | 0.9 | 0.01 | 0.21 | 0.21 | 91 | 1007.6 |
| 20260505233027 | 60 | 229 | 0.0 | 0.9 | 0.01 | 0.21 | 0.21 | 90 | 1007.6 |
| 20260505232512 | 60 | 0 | 0.0 | 0.9 | 0.02 | 0.21 | 0.21 | 90 | 1007.7 |
| 20260505232010 | 60 | 0 | 0.0 | 0.9 | 0.02 | 0.20 | 0.20 | 90 | 1007.8 |
| 20260505231532 | 60 | 0 | 0.0 | 1.7 | 0.02 | 0.20 | 0.20 | 90 | 1007.9 |
| 20260505231011 | 60 | 0 | 0.0 | 1.7 | 0.05 | 0.20 | 0.20 | 90 | 1007.9 |
| 20260505230509 | 60 | 0 | 0.0 | 0.9 | 0.11 | 0.20 | 0.20 | 90 | 1008.0 |